Погода в Беличах

Украина / Львовская область     49°27′11″N   22°51′50″E
темп.,
°C
ветер,
м/с
пор.,
м/с
влажн.,
%
обл.,
%
осадки,
мм/ч
давл.,
гПа
погр.,
м
8 мая, сб
сб800:00+4зсз41197100 8.6 1013881
03:00+3зсз6119495 9.1 1015944
06:00+1з41296100 0.1 10171157
09:00+3зсз51087100 0.1 10191003
12:00+4зсз598446 0.3 1021940
15:00+9зсз585297 0.4 10202009
18:00+7зсз487483 0.9 10201162
21:00+3ююз11900 1.3 102211
9 мая, вс
вс900:00+2ююз22915 0.0 102329
03:00+1ююз228895 0.0 102425
06:00+2ююз228811 0.0 102435
09:00+9ююз2564100 0.0 1024345
12:00+14юз45395 0.0 10231665
15:00+15юз56445 0.0 10221583
18:00+14юз575516 0.0 10211199
21:00+9ю377726 0.0 1023161
10 мая, пн
пн1000:00+6ю33908 0.0 102357
03:00+5ююв34885 0.0 102359
06:00+4ююв34845 0.0 102259
09:00+13юв35555 0.0 1021264
12:00+19ююв35375 0.0 10191078
15:00+22ююз35333 0.0 10181517
18:00+21ююз35451 0.0 10171053
21:00+12ю22770 0.0 101915
11 мая, вт
вт1100:00+10ю23842 0.0 101942
03:00+9ю22864 0.0 101932
06:00+9ююв33814 0.0 101852
09:00+16юв24605 0.0 1017243
12:00+22вюв24415 0.0 10151220
15:00+24в34395 0.0 10141643
18:00+21в46562 0.0 1013533
21:00+12в23880 0.0 101384
12 мая, ср
ср1200:00+10вюв22945 0.0 101338
03:00+8юв22950 0.0 101227
06:00+7вюв22950 0.0 101125
09:00+13в24670 0.0 1010338
12:00+17в79560 0.0 1008886
15:00+17в79594 0.0 10071183
18:00+16в69610 0.0 10061146
21:00+11в512720 0.0 1006856